Location: Natural Bridges National Monument
(37.6093°N, 109.9767°W)
Time: 13:11:52
(UTC-06:00)

USA 32 - Visible Passes

Search period start: 24 April 2017 00:00
Search period end: 04 May 2017 00:00
Orbit: 777 x 784 km, 85.0° (Epoch: 19 April)

Date Brightness Start Highest point End Pass type
(mag) Time Alt. Az. Time Alt. Az. Time Alt. Az.
24 Apr 4.4 03:59:28 51° SE 04:00:27 61° E 04:05:38 10° NNE visible
24 Apr 5.8 05:40:01 12° W 05:41:50 14° WNW 05:44:29 10° NW visible
25 Apr 5.3 03:27:02 32° ESE 03:27:48 33° E 03:32:27 10° NNE visible
25 Apr 5.1 05:07:34 23° W 05:08:45 25° WNW 05:13:02 10° NNW visible
26 Apr 6.2 02:54:34 18° E 02:55:16 18° E 02:58:47 10° NE visible
26 Apr 4.3 04:35:07 42° WSW 04:35:48 45° W 04:40:49 10° N visible
27 Apr 3.8 04:02:38 78° SW 04:02:57 83° W 04:08:13 10° N visible
28 Apr 4.5 03:30:09 54° E 03:30:12 54° E 03:35:19 10° NNE visible
28 Apr 5.7 05:10:41 15° W 05:11:30 16° WNW 05:14:37 10° NW visible
29 Apr 5.5 02:57:38 29° E 02:57:38 29° E 03:02:04 10° NNE visible
29 Apr 5.0 04:38:10 28° W 04:38:26 28° WNW 04:42:56 10° NNW visible
30 Apr 6.3 02:25:07 16° E 02:25:07 16° E 02:28:14 10° NE visible
30 Apr 4.3 04:05:39 50° WNW 04:05:39 50° WNW 04:10:37 10° N visible
01 May 4.1 03:33:07 76° NNE 03:33:07 76° NNE 03:37:57 10° N visible
02 May 4.9 03:00:33 45° ENE 03:00:33 45° ENE 03:04:59 10° NNE visible
02 May 5.6 04:41:05 18° WNW 04:41:10 18° WNW 04:44:39 10° NNW visible
03 May 5.8 02:28:00 26° ENE 02:28:00 26° ENE 02:31:39 10° NNE visible
03 May 5.0 04:08:32 31° WNW 04:08:32 31° WNW 04:12:47 10° NNW visible
